This is the latest recevied weather packets stored in our database for station/object JF2ZGN-13. If no packets are shown the sender has not sent any weather packets the latest 10 day(s).
| Time | Temp. | Humidity | Pressure | Rain* | Wind** | Luminosity | Snow |
|---|---|---|---|---|---|---|---|
| 1787780295 | 20.56° C | 72% | 908.6 hPa | 0 mm | - | - | - |
| 1787779695 | 20.56° C | 69% | 908.1 hPa | 0 mm | - | - | - |
| 1787779094 | 20.56° C | 72% | 908.1 hPa | 0 mm | - | - | - |
| 1787778493 | 20° C | 74% | 908.2 hPa | 0 mm | - | - | - |
| 1787777894 | 20° C | 73% | 907.9 hPa | 0 mm | - | - | - |
| 1787776692 | 20.56° C | 58% | 908.4 hPa | 0 mm | - | - | - |
| 1787776092 | 20° C | 59% | 908.5 hPa | 0 mm | - | - | - |
| 1787775491 | 20° C | 58% | 908.3 hPa | 0 mm | - | - | - |
| 1787774891 | 20.56° C | 58% | 908.5 hPa | 0 mm | - | - | - |
| 1787774290 | 20.56° C | 65% | 908.4 hPa | 0 mm | - | - | - |
| 1787773690 | 20.56° C | 67% | 908.4 hPa | 0 mm | - | - | - |
| 1787773089 | 20.56° C | 74% | 908.5 hPa | 0 mm | - | - | - |
| 1787772490 | 20.56° C | 83% | 908.2 hPa | 0 mm | - | - | - |
| 1787771888 | 20.56° C | 86% | 908.1 hPa | 0 mm | - | - | - |
| 1787771289 | 21.11° C | 83% | 907.9 hPa | 0 mm | - | - | - |
| 1787770688 | 20.56° C | 81% | 907.8 hPa | 0 mm | - | - | - |
| 1787770087 | 21.11° C | 80% | 907.8 hPa | 0 mm | - | - | - |
| 1787769486 | 21.11° C | 77% | 907.7 hPa | 0 mm | - | - | - |
| 1787768886 | 21.67° C | 73% | 907.5 hPa | 0 mm | - | - | - |
| 1787768286 | 21.67° C | 73% | 907.4 hPa | 0 mm | - | - | - |
| 1787767685 | 22.22° C | 64% | 907.5 hPa | 0 mm | - | - | - |
| 1787767085 | 22.78° C | 64% | 907.7 hPa | 0 mm | - | - | - |
| 1787766484 | 22.78° C | 63% | 907.6 hPa | 0 mm | - | - | - |
| 1787765884 | 22.78° C | 61% | 907.6 hPa | 0 mm | - | - | - |
| 1787765283 | 22.78° C | 64% | 907.6 hPa | 0 mm | - | - | - |
* Rain since midnight (hover to see other rain measurements)
** Current wind speed in m/s (hover to see current wind gust speed)